Weather in Chitkan

Russia / Republic of Buryatia     53°29′59″N   109°46′33″E
temp.,
°C
wind,
m/s
gust,
m/s
humid.,
%
clouds,
%
prec.,
mm/h
press.,
hPa
HPBL,
m
11 may, tue
tue1123:00+1sw359390 1.8 1014246
02:00+1sw249459 1.9 1014212
05:000sw349552 0.0 1014147
08:00+3wsw348492 0.0 1014553
11:00+5wsw347182 0.0 1014864
14:00+9wsw45479 0.1 10111417
17:00+10w55427 0.0 10101397
20:00+4sw47720 0.0 1013255
12 may, wed
wed1223:000ssw36830 0.0 1014108
02:000ssw34843 0.0 101368
05:000ssw338712 0.0 101248
08:00+6wsw466917 0.0 1010663
11:00+6wsw698196 0.1 1009865
14:00+3sw588550 0.3 1011498
17:00+6wnw710381 0.1 10101492
20:00+3wsw59500 0.1 1011439
13 may, thu
thu1323:00−1wsw48771 0.0 1013245
02:00−2sw47865 0.0 1013167
05:00−3sw47896 0.0 1014155
08:00+1wsw465920 0.0 1012855
11:00+5w764175 0.0 10111874
14:00+6w873980 0.0 10101784
17:00+6wsw664313 0.0 10101129
20:00+2sw366592 0.0 1013276
14 may, fri
fri1423:00−2sw3585100 0.0 101698
02:00−2sw348926 0.0 101784
05:00−3sw24936 0.0 101765
08:00+3wsw346515 0.0 1017676
11:00+8wsw33458 0.0 10151287
14:00+11wsw54353 0.0 10131594
17:00+10wsw55330 0.0 10121167
20:00+5sw35510 0.0 101485
15 may, sat
sat1523:00+2ssw32580 0.0 101630
02:00+1ssw22565 0.0 101619
05:00+1s22567 0.0 101516
08:00+9nnw113716 0.0 1014391
11:00+14wnw252845 0.0 10121358
14:00+15w782394 0.0 10101735
17:00+12wsw59319 0.0 10111007
20:00+7sw345536 0.0 101280